GFSCGP_850_temp_087.txt.gz
Temp
12 11 11 11 12 13 11 12 14 13 12 13 12 11 11 15 14 15 17 18 18 18 19 19 19 19 19 19 18 18 17 17 16 15 14 14 14 14 13 13 13 12 12 12
11 11 11 10 10 11 12 12 13 13 11 12 11 12 11 12 13 13 14 15 16 16 18 18 19 19 19 19 19 18 18 17 17 16 16 15 15 14 14 14 14 13 13 12
11 13 10 11 11 12 12 12 12 14 11 10 10 12 11 12 12 13 12 13 13 14 14 15 16 17 17 18 18 18 18 18 17 16 15 14 14 14 14 14 14 14 14 13
12 10 10 10 11 11 12 11 11 11 11 12 10 12 11 10 12 9 11 12 13 13 14 14 15 16 16 17 17 18 18 18 17 16 15 15 15 15 15 15 14 14 14 14
11 9 10 11 12 11 12 9 10 10 8 10 10 11 11 10 13 11 9 11 12 12 13 14 14 15 15 16 16 17 17 17 17 16 15 14 14 13 13 13 12 12 13 12
10 10 11 11 9 11 7 9 8 6 7 9 9 10 11 11 13 11 9 11 12 12 12 13 13 14 14 14 15 16 16 16 16 16 15 14 13 12 11 11 11 11 11 11
10 10 10 10 9 9 10 10 9 9 7 9 6 8 10 12 11 10 9 11 12 12 13 13 14 14 14 14 14 15 15 15 15 15 14 13 13 12 11 10 10 11 11 11
9 10 9 10 10 9 9 11 9 9 7 9 7 9 11 8 9 11 10 11 12 12 13 13 13 14 14 14 14 14 14 15 14 14 14 14 13 13 12 12 12 12 12 11
9 10 9 9 9 11 10 10 9 5 -4 5 7 9 9 7 7 9 10 11 11 11 12 13 13 13 13 14 14 14 14 14 14 14 13 13 13 13 13 13 13 12 12 12
10 10 8 9 10 10 10 8 10 6 6 6 8 9 9 7 7 7 8 10 10 11 11 12 12 12 12 12 12 12 13 13 12 12 13 13 12 12 12 12 12 12 12 12
9 9 8 8 8 8 9 9 8 8 7 5 5 9 7 9 7 6 8 10 11 11 11 11 11 11 11 11 11 12 12 12 12 11 11 11 11 11 11 11 11 11 11 11
9 8 6 8 8 8 9 9 9 9 7 3 5 9 8 7 7 9 9 9 10 10 10 10 10 10 10 11 11 11 11 11 11 11 11 11 10 11 10 10 10 10 10 10
8 7 3 7 8 7 7 7 8 6 5 4 7 8 5 7 6 9 9 9 9 9 9 9 9 10 10 10 10 10 9 9 9 9 9 9 9 9 9 9 9 9 9 10
9 6 8 10 10 7 8 7 7 10 8 7 8 7 7 5 5 7 8 8 8 8 8 8 9 9 9 9 8 8 8 8 8 8 8 8 8 8 8 8 8 8 8 8
8 6 6 5 6 7 7 7 6 9 11 10 11 8 9 6 5 7 8 7 7 7 7 7 8 8 8 8 8 8 7 7 7 7 7 7 7 7 7 7 7 7 7 7
5 4 5 4 5 5 7 6 7 10 8 8 6 8 8 8 7 6 7 6 6 6 7 7 7 7 7 7 7 7 7 7 7 7 7 7 6 6 6 6 6 6 6 6
4 4 4 6 4 5 7 6 5 6 5 9 8 7 5 5 6 6 6 7 6 7 6 6 6 7 7 7 7 7 7 6 6 6 6 6 6 6 6 6 6 6 6 6
3 3 3 3 5 7 7 3 4 6 5 6 6 5 7 7 8 8 7 7 6 6 6 6 6 6 6 6 6 6 6 6 5 5 5 5 5 5 5 5 5 5 5 5
3 3 1 4 1 3 5 4 3 5 6 5 5 5 6 6 6 5 6 6 6 6 6 6 6 6 5 5 5 5 4 5 5 5 5 4 4 4 4 4 4 4 4 4
2 3 4 0 3 3 5 3 4 6 5 4 6 4 2 4 3 3 5 5 5 5 5 5 5 4 4 4 4 3 4 3 4 4 4 3 3 3 3 3 3 3 3 3
2 2 4 1 2 1 1 2 5 4 5 1 4 3 3 2 4 5 4 4 4 5 4 4 3 3 3 3 3 3 2 2 2 2 2 2 2 2 2 2 2 2 1 1
2 3 2 -2 1 3 2 2 4 4 2 4 4 4 4 4 4 4 4 4 4 4 3 3 3 2 2 2 2 2 1 1 2 2 2 2 2 1 1 1 1 1 1 -0
3 3 1 2 3 2 2 3 5 6 5 3 4 4 4 4 4 4 4 3 3 3 2 2 2 2 1 1 1 1 1 1 1 1 1 1 1 0 0 0 0 -0 -1 -1
-1 -0 1 3 0 1 2 3 5 6 6 5 4 4 3 3 3 2 2 2 2 2 2 2 1 1 0 -0 -0 -0 0 0 0 0 0 0 0 0 -0 -1 -1 -1 -2 -2
-1 -1 -3 -2 -1 0 2 3 5 4 4 4 3 3 3 3 2 2 2 2 2 1 1 -0 -1 -1 -1 -1 -1 -1 -1 -1 -1 -1 -1 -1 -1 -1 -1 -1 -2 -2 -3 -4
-2 -2 1 0 1 3 3 4 4 4 4 3 3 2 3 3 3 2 2 1 0 -0 -1 -1 -1 -1 -1 -2 -2 -2 -2 -2 -1 -1 -1 -1 -1 -2 -2 -2 -2 -4 -5 -5

GFSCGP_850_temp_093.txt.gz
Temp
16 17 17 19 20 22 22 20 20 20 16 17 18 19 21 21 19 19 20 20 19 18 17 18 18 18 18 17 15 14 14 13 13 15 15 14 14 14 14 14 13 13 13 12
16 17 19 20 19 19 20 20 20 16 15 16 18 18 20 20 19 18 18 18 18 17 15 17 17 18 18 18 18 15 14 13 13 14 15 14 13 13 13 12 12 12 13 12
17 18 16 16 16 18 19 20 19 19 15 16 16 19 20 18 16 14 14 14 14 14 14 13 15 16 16 17 18 18 16 13 13 12 13 13 13 12 12 12 12 12 12 11
17 13 15 16 17 18 17 18 18 16 18 19 16 20 20 19 17 15 14 15 15 13 12 12 12 14 16 16 17 17 16 16 14 12 12 12 11 12 12 12 12 12 12 12
15 13 14 15 17 17 17 16 17 17 18 17 17 18 22 17 17 16 15 14 13 12 12 11 13 14 15 16 16 17 16 15 16 14 12 11 11 12 11 11 11 11 11 11
13 11 15 16 14 16 14 15 15 16 17 16 19 18 21 19 19 16 14 13 12 11 10 11 12 13 13 14 14 15 15 15 15 15 14 11 10 10 10 10 10 10 10 10
13 13 12 13 13 14 16 17 15 15 15 15 13 14 19 16 17 16 14 13 11 11 11 10 10 12 13 13 14 14 14 14 14 14 14 14 13 12 11 10 9 9 9 9
14 13 12 13 16 14 15 17 16 13 14 16 9 13 18 16 14 15 14 12 11 11 10 9 11 12 13 13 13 13 14 14 14 14 13 13 13 12 12 11 11 11 11 11
15 14 11 13 13 16 14 15 16 11 6 14 16 16 14 12 13 14 13 11 11 10 9 9 10 12 12 13 13 13 13 13 13 13 12 12 12 12 11 11 11 11 11 11
16 11 10 10 12 12 14 16 14 15 12 13 15 16 19 12 12 13 12 12 11 10 9 9 10 11 12 12 12 12 12 12 12 11 11 11 11 11 11 10 10 10 10 10
15 14 9 11 12 14 13 14 14 16 15 15 15 17 18 15 14 13 13 12 11 9 8 8 10 10 11 11 11 11 11 11 11 10 10 10 10 10 10 10 9 9 9 9
12 13 10 11 9 10 14 16 15 15 12 14 12 17 12 16 15 14 13 12 10 9 8 8 9 9 9 10 10 10 10 10 10 10 10 10 9 9 9 9 9 9 8 8
11 10 8 9 11 9 11 14 16 17 12 10 13 17 11 14 15 14 13 11 9 8 7 7 8 8 9 9 9 9 10 9 9 9 9 9 8 8 8 8 8 8 8 8
12 10 13 13 15 14 11 13 13 15 13 14 14 17 12 14 14 13 12 10 8 8 7 7 6 7 8 8 9 9 8 8 8 8 8 8 8 7 7 7 7 7 7 7
11 9 12 14 16 15 14 13 13 13 15 15 16 16 17 13 13 13 12 10 8 8 7 6 7 8 8 8 8 8 8 7 7 7 7 7 7 6 6 6 6 6 6 6
8 8 12 8 12 10 10 12 12 12 13 15 16 16 18 15 13 12 11 9 8 7 7 6 8 8 7 7 7 7 7 7 7 6 6 6 6 6 6 6 6 6 5 5
7 7 7 9 7 8 8 9 12 12 14 15 14 16 15 13 13 12 11 9 8 7 7 7 7 7 7 7 7 6 6 6 6 5 5 5 5 5 5 5 5 5 5 5
5 5 6 7 6 8 11 10 13 13 14 14 15 16 13 13 12 12 11 9 8 7 7 7 7 6 6 6 6 6 6 5 5 5 5 4 4 4 4 4 4 4 4 4
7 7 6 8 7 10 11 7 9 11 12 14 14 14 12 13 12 10 10 9 8 8 7 7 7 6 6 6 6 5 4 4 4 4 4 4 4 3 3 3 3 3 3 3
3 6 8 6 8 8 11 9 8 10 9 12 12 12 9 9 8 10 8 8 8 8 8 7 6 6 6 5 4 4 4 4 4 4 3 3 3 2 2 2 2 2 2 2
4 4 6 6 7 7 6 4 8 8 10 6 10 11 8 8 11 12 8 7 8 7 6 6 6 5 4 4 4 4 4 3 3 3 2 2 1 1 1 1 1 1 1 1
5 5 6 5 6 8 5 4 8 8 5 6 7 8 7 9 9 8 6 7 6 6 5 5 4 4 4 4 3 3 3 3 2 2 1 1 1 1 0 0 -0 -0 -0 0
5 7 6 6 8 5 5 5 6 7 7 6 6 7 7 6 5 4 4 5 5 5 4 3 4 3 3 3 3 3 2 2 1 1 0 0 0 -0 -0 -0 -0 -1 -1 -1
4 3 5 6 6 5 4 4 5 7 7 8 6 6 5 5 3 3 4 4 3 3 3 3 3 3 3 3 2 1 1 0 0 0 0 0 -0 -0 -0 -1 -1 -1 -2 -2
4 3 3 3 2 3 5 5 6 6 6 6 5 5 5 6 3 4 4 4 4 4 3 3 3 3 2 1 1 0 0 0 -0 -0 -0 -1 -1 -1 -1 -1 -1 -2 -2 -3
2 4 5 7 5 6 6 8 7 6 6 5 6 5 5 6 5 4 4 4 4 3 3 3 3 2 1 0 -0 -0 -0 -0 -0 -0 -1 -1 -1 -1 -1 -2 -1 -2 -2 -3

GFSCGP_850_temp_096.txt.gz
Temp
15 14 14 15 16 17 18 17 18 16 16 16 15 17 17 18 18 19 20 20 19 18 18 18 17 17 16 15 15 15 14 14 14 14 14 14 14 14 13 13 12 13 13 11
14 13 16 17 17 17 18 17 17 14 15 15 16 15 17 18 18 19 19 20 19 18 17 17 17 17 17 17 16 15 14 14 13 13 12 13 13 13 12 13 12 12 12 11
14 16 17 16 16 17 17 17 15 16 14 15 16 15 15 17 17 17 17 17 17 16 15 15 16 16 17 17 17 16 14 14 13 13 12 13 12 12 12 12 12 12 12 11
15 14 15 14 15 17 16 17 15 13 14 14 15 13 15 13 13 14 15 14 15 14 14 13 14 14 15 16 16 16 16 14 13 12 12 12 12 12 11 11 11 11 11 11
13 12 13 14 15 16 15 15 15 15 15 16 15 13 17 14 14 13 14 15 14 13 12 12 12 14 14 15 16 16 15 14 13 12 12 12 12 11 10 10 10 10 10 10
12 12 14 15 13 15 14 14 15 16 14 12 14 13 14 13 14 13 14 14 12 12 11 11 11 12 13 14 14 15 15 13 13 12 11 11 10 10 10 9 9 9 9 9
12 12 12 13 11 13 14 13 11 11 10 10 9 13 14 16 16 13 12 13 11 11 10 10 10 11 12 12 13 13 14 14 13 13 12 11 11 10 10 9 9 9 9 9
12 11 11 12 14 12 12 14 10 10 9 11 8 11 13 13 15 15 14 12 11 11 10 10 10 11 11 12 12 13 13 13 13 13 12 12 11 11 11 10 10 10 10 10
13 11 11 12 12 13 12 12 14 9 3 7 10 12 12 11 13 13 12 11 11 10 10 10 10 11 11 11 12 12 13 13 13 12 12 12 11 11 11 11 10 10 10 10
15 9 10 10 11 12 12 14 11 11 7 8 11 13 13 9 10 11 10 11 10 10 9 9 10 11 11 11 11 11 12 12 12 11 11 11 11 10 10 10 10 10 10 9
15 11 8 10 10 11 11 12 13 13 11 8 8 10 14 11 11 11 11 11 10 9 9 9 10 10 10 10 10 11 11 11 11 11 11 10 10 10 10 9 9 9 9 9
12 10 7 10 9 9 11 14 13 11 11 10 8 10 12 12 12 12 11 11 10 10 9 9 10 10 10 10 10 10 10 10 10 10 10 10 9 9 9 8 8 8 8 8
10 9 6 9 10 9 10 12 13 14 9 8 8 10 10 12 12 12 11 11 10 9 8 9 9 9 9 9 9 9 9 9 9 9 9 9 8 8 8 8 8 7 7 7
12 9 10 11 12 11 10 11 11 13 8 9 9 13 11 12 11 12 12 11 10 9 9 8 8 8 9 9 9 8 8 8 8 8 8 8 7 7 7 7 7 7 7 7
10 7 9 11 13 12 11 11 11 11 13 12 14 13 13 10 11 13 12 10 9 9 8 8 8 8 8 8 7 8 8 8 8 8 7 7 7 7 7 7 6 6 6 5
8 6 9 7 11 10 11 11 11 12 12 13 14 12 14 13 14 13 12 9 8 8 8 7 7 8 7 7 7 7 7 7 7 7 7 6 6 6 6 6 5 5 5 5
7 6 6 7 6 7 7 8 9 11 12 12 13 14 13 11 11 12 11 10 9 8 8 7 7 7 7 7 7 7 7 7 7 6 6 6 6 5 5 5 5 5 4 4
4 4 4 4 5 6 10 11 11 11 12 12 13 13 12 13 13 13 13 12 9 8 8 7 7 7 7 7 7 7 6 6 6 6 5 5 5 4 4 4 4 4 3 3
6 5 5 6 4 6 9 7 8 9 11 12 11 12 13 14 13 12 12 11 10 9 8 8 8 7 7 7 6 6 6 6 5 5 5 4 4 4 4 4 3 3 3 3
4 7 7 5 7 7 9 10 10 9 9 10 12 12 10 11 9 10 12 11 10 9 8 8 7 7 7 6 6 6 5 5 5 4 4 3 3 3 3 3 2 2 2 2
5 4 6 6 6 5 5 6 11 7 9 8 9 12 11 10 13 13 12 10 9 8 7 7 6 6 6 6 5 5 5 5 4 3 3 3 2 2 2 2 2 1 1 1
5 5 6 6 6 7 5 5 8 7 6 8 8 10 11 10 10 11 11 10 8 7 7 6 6 5 5 5 5 4 4 3 3 3 3 2 2 2 2 1 1 0 0 0
4 5 5 6 5 4 5 5 6 6 7 8 8 9 9 9 8 8 7 7 6 7 6 5 6 5 4 4 4 4 3 3 3 2 2 2 2 1 1 0 0 0 -0 -1
4 4 3 5 4 4 5 6 7 7 6 7 7 7 7 7 6 5 4 4 5 5 5 5 5 4 4 4 4 3 3 2 2 2 2 1 1 1 1 0 -0 -0 -1 -1
2 2 1 1 3 3 5 7 7 7 7 7 7 7 7 6 5 5 4 4 4 4 3 3 4 4 4 3 3 2 2 2 2 2 1 1 1 0 0 0 -0 -0 -1 -2
1 2 3 2 5 6 6 7 8 7 7 7 7 6 4 5 6 5 4 4 4 4 4 4 4 3 3 3 2 2 2 1 1 1 1 0 0 0 0 -0 -0 -1 -2 -2

GFSCGP_850_temp_102.txt.gz
Temp
13 12 13 14 12 13 13 14 14 14 14 15 13 15 13 16 16 16 17 18 18 18 17 17 17 17 17 16 16 16 15 15 14 13 13 13 12 12 13 12 11 11 11 11
12 12 13 13 13 14 14 13 13 13 13 14 13 13 13 13 14 17 18 18 18 18 18 17 17 17 16 16 16 15 15 15 14 14 14 13 13 12 11 11 11 11 11 11
11 12 13 13 13 13 13 13 11 14 13 13 12 12 14 14 15 16 17 19 19 18 18 17 17 16 16 16 15 15 15 15 14 14 13 12 12 11 11 11 11 11 11 11
12 13 12 12 13 14 12 13 13 11 12 12 13 11 11 12 12 12 16 17 18 17 17 17 17 17 16 16 15 15 15 14 14 14 13 12 11 10 10 10 11 11 10 10
12 11 11 12 14 13 14 13 12 11 12 12 12 11 11 10 11 11 13 16 17 17 17 17 16 17 17 16 16 15 14 14 14 13 13 12 12 11 10 10 10 10 10 10
12 12 12 13 13 13 11 12 11 10 10 11 11 11 11 10 12 13 12 14 16 15 15 15 15 15 16 16 16 16 15 14 14 13 13 12 12 12 10 10 9 9 9 9
11 11 11 12 12 13 13 13 10 11 9 10 8 9 13 12 11 11 12 14 14 14 14 14 14 14 15 15 15 15 15 14 14 13 12 12 11 10 9 9 9 9 8 8
11 10 10 11 12 11 10 13 8 9 8 10 8 9 12 11 12 13 15 16 14 13 13 13 13 13 14 14 13 13 13 13 13 12 12 11 10 10 9 9 8 8 8 8
9 11 10 10 11 13 12 11 11 8 -1 7 9 10 11 11 10 11 11 12 12 12 11 11 12 11 11 11 11 12 12 11 11 11 11 11 10 10 8 8 8 9 9 9
11 10 9 10 11 12 11 11 12 8 7 8 9 9 11 10 11 8 7 9 10 10 10 10 9 10 10 10 10 10 10 11 10 10 10 10 10 10 9 9 9 9 9 9
10 10 8 9 10 10 11 11 11 10 8 9 7 10 8 12 11 9 7 9 10 10 10 9 9 9 9 9 10 10 10 10 10 10 10 10 10 9 9 9 9 9 9 9
11 7 6 9 9 9 10 11 11 12 10 7 8 11 11 10 10 11 9 10 11 11 10 9 9 9 9 9 9 9 10 10 10 10 10 10 10 9 9 9 9 9 8 8
8 7 5 9 10 9 9 10 11 9 7 8 8 10 10 9 9 10 9 10 10 10 9 8 8 9 9 9 9 9 9 10 10 10 10 9 9 9 8 8 8 8 8 8
11 8 8 10 11 9 9 10 10 11 8 7 8 13 13 11 9 8 9 10 10 9 9 9 9 9 8 8 9 9 9 9 9 9 9 9 9 8 8 8 8 8 7 7
11 7 8 10 10 10 11 10 10 11 13 12 14 10 12 11 9 9 9 8 8 9 9 9 9 8 8 8 8 8 8 8 9 9 8 8 8 7 7 7 7 7 7 7
8 6 9 7 9 10 11 9 10 11 11 11 12 11 11 13 12 11 10 9 9 9 9 9 9 9 8 8 8 8 8 8 8 8 8 7 7 7 7 7 6 6 6 6
7 5 4 10 7 7 7 8 9 10 12 12 12 13 10 10 9 11 11 11 11 11 10 10 10 10 9 9 9 8 8 8 7 7 7 7 6 6 6 6 6 6 6 6
4 5 3 4 4 7 10 10 10 10 10 12 12 12 10 12 15 16 16 16 14 12 11 11 11 10 10 9 8 8 7 7 6 6 6 6 6 6 5 5 5 6 6 5
3 3 1 3 -3 6 8 6 8 8 11 10 10 12 11 13 13 13 15 16 16 16 16 15 14 12 10 9 8 7 7 6 6 6 6 6 5 5 5 5 5 5 5 5
4 5 5 -5 2 4 9 7 9 10 10 12 10 11 8 9 9 13 15 16 16 16 16 14 13 11 10 9 8 7 6 6 6 6 5 5 5 4 5 5 5 5 4 4
3 1 6 -2 -1 2 3 6 10 8 10 10 11 11 9 8 12 13 14 14 15 15 14 13 11 12 10 8 7 6 6 5 5 5 5 4 4 4 4 4 4 4 3 3
4 4 4 1 2 6 5 5 9 9 8 8 9 9 9 10 10 11 11 12 13 14 13 11 11 9 8 8 7 6 6 5 5 4 4 4 4 4 4 3 4 3 2 2
6 6 7 7 6 4 5 5 6 7 8 7 8 8 8 8 9 9 10 11 12 12 12 10 9 9 7 7 6 6 5 5 4 4 4 4 3 3 3 3 3 2 2 1
2 2 3 6 5 4 5 5 7 7 7 7 8 8 8 8 9 9 9 9 10 10 9 8 8 7 7 6 5 5 5 4 4 4 3 3 3 3 3 2 2 1 1 1
1 2 2 2 3 4 4 5 6 6 7 7 8 8 8 8 8 8 8 8 8 8 8 7 6 6 6 6 5 4 4 4 3 3 3 2 2 3 3 2 1 1 1 1
0 2 3 3 4 4 4 6 6 7 7 7 7 7 7 8 8 8 7 7 7 6 6 5 5 5 6 5 3 3 3 3 3 2 2 2 2 2 2 1 1 0 0 -0

GFSCGP_850_temp_105.txt.gz
Temp
11 11 10 11 13 13 13 13 14 14 13 14 12 13 13 14 13 14 15 15 15 16 17 16 16 16 15 15 15 15 15 14 14 13 13 12 11 12 11 11 11 11 11 10
11 10 12 13 12 13 12 13 13 13 13 13 12 12 13 12 13 15 16 16 17 17 16 16 16 16 16 16 16 15 15 15 14 14 13 13 12 11 11 11 11 11 11 11
10 11 12 13 12 12 12 13 12 14 12 13 12 12 13 14 14 15 16 17 17 18 17 17 16 17 16 16 16 16 16 15 15 14 13 13 12 11 10 10 10 11 11 11
10 12 12 11 12 13 12 13 12 11 12 12 12 10 11 11 12 12 16 16 18 18 18 17 17 17 17 16 16 16 15 15 15 14 14 13 12 12 10 11 11 11 11 11
9 11 10 11 11 12 13 12 12 12 12 12 11 11 10 11 11 12 13 17 18 18 18 18 17 17 16 16 16 15 15 15 14 14 14 13 12 12 11 10 10 11 11 10
10 12 12 11 11 11 11 12 11 9 10 10 11 11 10 10 11 13 15 16 18 18 18 17 17 17 16 15 15 15 15 14 14 14 14 13 13 12 12 11 10 10 10 10
9 10 11 12 12 11 12 12 10 11 9 11 8 9 15 12 10 11 12 15 17 18 17 17 16 16 16 16 16 16 15 15 14 14 13 13 12 12 12 11 10 10 9 9
10 10 9 10 12 11 10 13 9 8 7 10 8 9 11 10 12 14 15 15 15 16 16 16 16 16 16 16 15 15 15 15 15 14 13 13 12 12 11 10 9 9 9 8
9 10 10 10 11 13 10 10 12 7 -1 6 8 9 10 11 9 11 12 12 14 15 15 15 15 14 14 14 14 14 14 14 14 13 12 12 12 11 10 9 9 8 8 8
9 10 9 10 11 12 12 12 12 8 7 7 9 9 11 12 13 11 9 11 13 13 14 14 13 13 13 13 13 13 13 12 12 12 11 11 11 11 9 9 8 8 8 9
9 10 8 9 9 10 10 10 10 11 8 8 7 10 8 13 13 13 11 10 11 12 12 12 12 12 11 12 12 11 11 10 10 10 10 11 11 10 9 9 8 8 9 9
10 7 6 9 9 9 10 11 13 12 10 6 7 9 12 9 9 12 11 13 12 12 12 11 11 11 11 11 10 10 10 9 9 9 10 10 10 10 9 9 9 8 9 9
8 7 4 8 10 8 8 9 11 9 7 8 7 13 10 9 9 11 10 11 12 11 11 10 10 10 10 10 9 9 8 8 8 8 9 9 9 10 10 9 9 8 8 8
11 7 9 10 11 8 9 9 9 11 9 9 8 12 13 12 10 10 9 10 10 11 11 10 9 10 9 8 8 8 8 8 8 8 8 9 10 9 9 8 8 8 8 7
10 7 7 10 11 10 10 10 10 10 12 11 14 11 12 12 11 11 12 10 10 10 10 10 10 9 9 8 8 8 8 8 8 8 9 9 9 8 8 8 8 7 7 7
7 5 8 7 9 10 10 9 10 10 12 11 12 11 11 13 14 12 13 10 10 10 11 10 10 10 9 9 9 9 9 8 8 8 8 8 8 8 8 7 7 7 6 6
8 4 3 6 6 7 7 8 9 10 11 12 11 13 9 9 9 13 13 13 14 15 14 12 12 11 11 10 10 9 9 8 8 8 7 8 8 7 7 7 6 6 6 6
5 8 4 2 4 7 10 9 9 10 10 11 12 12 10 11 14 15 16 17 17 16 15 14 12 11 11 10 10 9 9 8 8 7 7 7 7 7 6 6 5 5 5 5
3 5 2 5 1 5 9 7 7 9 11 9 10 10 11 13 13 13 15 16 16 17 17 17 17 15 12 11 10 9 8 7 7 7 6 6 6 6 6 5 5 5 5 5
3 4 6 -4 6 7 11 7 8 9 8 12 10 9 8 10 10 13 15 15 16 16 16 16 16 13 11 11 10 9 8 7 6 7 6 6 6 6 5 5 5 5 4 4
2 1 6 -4 1 2 3 6 10 7 10 11 10 11 9 8 12 12 13 13 14 14 15 14 13 13 13 11 10 9 8 7 7 6 6 5 5 5 4 4 4 4 3 3
5 4 3 -2 -0 6 4 5 8 9 9 8 8 8 9 10 11 11 11 12 11 12 13 13 13 13 12 10 9 8 7 7 6 6 5 4 4 4 3 3 3 3 3 2
6 6 5 5 5 6 5 5 7 8 8 8 8 8 8 8 9 9 9 10 11 11 11 12 11 11 10 9 8 7 7 7 6 5 4 4 3 3 3 3 3 3 2 3
3 2 4 6 5 5 5 6 7 7 8 8 8 8 8 8 8 8 8 9 9 10 10 10 8 8 7 7 7 6 6 6 5 4 3 3 3 2 2 2 2 1 2 2
1 2 1 1 3 3 4 5 6 6 7 7 7 7 7 7 7 8 8 8 9 9 8 8 7 7 6 6 5 5 5 4 4 3 3 2 2 2 2 1 1 1 -0 1
0 2 3 2 3 3 4 5 6 6 6 6 7 7 6 6 7 7 8 8 7 8 7 7 6 6 5 5 5 4 4 3 3 3 2 2 2 2 1 0 -0 -0 1 0